FW9915 Weather Reports


Display with metric or nautical units.
time (UTC)temp
F
wind
direction
speed
MPH
gust
MPH
rain 1hr
in
rain 24hr
in
rain mn
in
humidity
%
barometer
mb
20220524184532 58 141 2.0 4.0 0.00 0.00 0.00 96 1014.5
20220524183531 58 140 1.0 4.0 0.00 0.00 0.00 96 1014.5
20220524182543 58 204 3.0 5.0 0.00 0.00 0.00 96 1014.5
20220524181553 59 172 1.0 3.0 0.00 0.00 0.00 96 1014.5
20220524180529 59 184 1.0 6.0 0.00 0.00 0.00 97 1014.4
20220524175529 59 205 2.0 4.0 0.00 0.00 0.00 97 1014.4
20220524174553 59 212 2.0 4.0 0.00 0.00 0.00 97 1014.3
20220524173529 59 194 2.0 5.0 0.00 0.00 0.00 97 1014.2
20220524172530 59 199 3.0 4.0 0.00 0.00 0.00 96 1014.3
20220524171529 59 197 1.0 4.0 0.00 0.00 0.00 96 1014.1
20220524170529 59 143 3.0 4.0 0.00 0.00 0.00 96 1013.9
20220524165629 59 198 3.0 5.0 0.00 0.00 0.00 96 1013.9
20220524164529 59 141 2.0 4.0 0.00 0.00 0.00 96 1013.9
20220524163529 59 191 3.0 7.0 0.00 0.00 0.00 95 1014.0
20220524162529 59 199 2.0 5.0 0.00 0.00 0.00 95 1013.9
20220524161530 59 147 3.0 5.0 0.00 0.00 0.00 95 1013.9
20220524160629 59 139 6.0 7.0 0.00 0.00 0.00 95 1013.7
20220524155529 59 142 5.0 7.0 0.00 0.00 0.00 94 1013.6
20220524154617 60 132 3.0 5.0 0.00 0.00 0.00 94 1013.7
20220524153530 59 145 4.0 6.0 0.00 0.00 0.00 93 1013.7
20220524152529 59 140 5.0 6.0 0.00 0.00 0.00 94 1013.6
20220524151542 59 151 5.0 8.0 0.00 0.00 0.00 94 1013.7
20220524150653 59 148 4.0 6.0 0.00 0.00 0.00 96 1013.4
20220524145542 59 136 5.0 6.0 0.00 0.00 0.00 96 1013.3
20220524144530 59 138 6.0 9.0 0.00 0.00 0.00 96 1013.2
20220524143541 60 150 6.0 9.0 0.00 0.00 0.00 95 1013.2
20220524142529 60 141 5.0 9.0 0.00 0.00 0.00 95 1013.4
20220524141529 60 153 6.0 8.0 0.00 0.00 0.00 94 1013.4
20220524140529 60 139 5.0 7.0 0.00 0.00 0.00 93 1013.6
20220524135529 60 139 5.0 9.0 0.00 0.00 0.00 92 1013.8
20220524134529 60 142 5.0 8.0 0.00 0.00 0.00 90 1013.9
20220524133530 61 143 5.0 9.0 0.00 0.00 0.00 89 1013.9
20220524132530 60 129 6.0 7.0 0.00 0.00 0.00 89 1014.0
20220524131541 60 128 6.0 9.0 0.00 0.00 0.00 90 1014.0
20220524130553 61 129 5.0 8.0 0.00 0.00 0.00 89 1013.8
20220524125529 61 136 6.0 9.0 0.00 0.00 0.00 90 1013.7
20220524124529 60 151 6.0 9.0 0.00 0.00 0.00 90 1013.8
20220524123529 60 146 5.0 11.0 0.00 0.00 0.00 90 1013.9
20220524122530 60 140 6.0 9.0 0.00 0.00 0.00 91 1013.9
20220524121530 60 141 6.0 9.0 0.00 0.00 0.00 91 1014.0
20220524120819 60 135 5.0 6.0 0.00 0.00 0.00 92 1014.2
20220524115642 61 135 6.0 8.0 0.00 0.00 0.00 90 1014.3
20220524114629 61 142 6.0 9.0 0.00 0.00 0.00 90 1014.3
20220524113654 62 137 7.0 10.0 0.00 0.00 0.00 87 1014.3
20220524112541 61 136 8.0 11.0 0.00 0.00 0.00 85 1014.4
20220524111529 61 137 6.0 10.0 0.00 0.00 0.00 86 1014.3
20220524110530 61 149 7.0 10.0 0.00 0.00 0.00 86 1014.4
20220524105529 61 134 7.0 10.0 0.00 0.00 0.00 86 1014.3
20220524104530 61 130 7.0 11.0 0.00 0.00 0.00 86 1014.4
20220524103530 61 146 7.0 10.0 0.00 0.00 0.00 84 1014.5
20220524102530 61 131 6.0 9.0 0.00 0.00 0.00 87 1014.5
20220524101529 62 143 6.0 9.0 0.00 0.00 0.00 85 1014.4
20220524100530 62 149 6.0 7.0 0.00 0.00 0.00 84 1014.3
20220524095530 62 158 6.0 9.0 0.00 0.00 0.00 78 1014.3
20220524094530 63 147 5.0 11.0 0.00 0.00 0.00 74 1014.2
20220524093530 63 145 6.0 10.0 0.00 0.00 0.00 76 1014.1
20220524092529 63 132 5.0 9.0 0.00 0.00 0.00 76 1014.1
20220524091531 63 138 5.0 9.0 0.00 0.00 0.00 78 1014.0
20220524090529 63 125 5.0 9.0 0.00 0.00 0.00 78 1014.0
20220524085529 64 146 5.0 7.0 0.00 0.00 0.00 77 1014.0
20220524084529 64 111 5.0 6.0 0.00 0.00 0.00 72 1013.9
20220524083530 64 116 4.0 6.0 0.00 0.00 0.00 70 1013.9
20220524082530 65 149 4.0 5.0 0.00 0.00 0.00 68 1013.8
20220524081530 65 114 4.0 9.0 0.00 0.00 0.00 67 1013.8
20220524080541 64 109 1.0 5.0 0.00 0.00 0.00 62 1013.8
20220524075542 64 119 4.0 5.0 0.00 0.00 0.00 65 1013.7
20220524074529 63 51 2.0 4.0 0.00 0.00 0.00 67 1013.6
20220524073530 62 58 7.0 12.0 0.00 0.00 0.00 68 1013.7
20220524072530 63 64 5.0 8.0 0.00 0.00 0.00 70 1013.8
20220524071530 63 65 5.0 7.0 0.00 0.00 0.00 68 1013.7
20220524070530 62 58 5.0 7.0 0.00 0.00 0.00 69 1013.6
20220524065542 62 0.0 0.0 0.00 0.00 0.00 69 1013.5
20220524064541 62 0.0 0.0 0.00 0.00 0.00 70 1013.4
20220524063529 62 0.0 0.0 0.00 0.00 0.00 71 1013.4
20220524062606 61 0.0 0.0 0.00 0.00 0.00 71 1013.4
20220524061529 61 0.0 0.0 0.00 0.00 0.00 75 1013.4
20220524060528 61 0.0 0.0 0.00 0.00 0.00 78 1013.4
20220524055529 60 0.0 0.0 0.00 0.00 0.00 81 1013.4
20220524054540 60 45 4.0 4.0 0.00 0.00 0.00 85 1013.4
20220524053528 60 0.0 0.0 0.00 0.00 0.00 84 1013.3
20220524052528 60 0.0 0.0 0.00 0.00 0.00 81 1013.2
20220524051529 59 0.0 0.0 0.00 0.00 0.00 81 1013.0
20220524050529 58 0.0 0.0 0.00 0.00 0.00 86 1013.0
20220524045540 58 0.0 0.0 0.00 0.00 0.00 87 1012.9
20220524044528 58 0.0 0.0 0.00 0.00 0.00 83 1012.9
20220524043528 58 0.0 0.0 0.00 0.00 0.00 83 1012.9
20220524042528 58 0.0 0.0 0.00 0.00 0.00 83 1013.0
20220524041529 58 0.0 0.0 0.00 0.00 0.00 83 1013.0
20220524040529 58 0.0 0.0 0.00 0.00 0.00 83 1012.9
20220524035528 59 338 0.0 2.0 0.00 0.00 0.00 83 1012.8
20220524034527 60 0.0 0.0 0.00 0.00 0.00 81 1012.9
20220524033528 60 0.0 0.0 0.00 0.00 0.00 80 1012.6
20220524032527 59 0.0 0.0 0.00 0.00 0.00 79 1012.5
20220524031527 58 0.0 0.0 0.00 0.00 0.00 80 1012.5
20220524030528 57 0.0 0.0 0.00 0.00 0.00 80 1012.5
20220524025527 57 0.0 0.0 0.00 0.00 0.00 81 1012.5
20220524024527 56 0.0 0.0 0.00 0.00 0.00 81 1012.5
20220524023528 56 0.0 0.0 0.00 0.00 0.00 82 1012.4
20220524022528 54 0.0 0.0 0.00 0.00 0.00 86 1012.4
20220524021527 54 0.0 0.0 0.00 0.00 0.00 94 1012.4
20220524020527 54 0.0 0.0 0.00 0.00 0.00 96 1012.4
20220524015527 54 0.0 0.0 0.00 0.00 0.00 97 1012.3
20220524014527 54 0.0 0.0 0.00 0.00 0.00 97 1012.3
20220524013526 55 0.0 0.0 0.00 0.00 0.00 96 1012.2
20220524012527 55 0.0 0.0 0.00 0.00 0.00 96 1012.1
20220524011539 55 0.0 0.0 0.00 0.00 0.00 96 1012.1
20220524010526 55 251 2.0 3.0 0.00 0.00 0.00 96 1012.1
20220524005527 55 230 0.0 3.0 0.00 0.00 0.00 96 1012.1
20220524004538 55 248 4.0 4.0 0.00 0.00 0.00 95 1012.1
20220524003527 55 0.0 0.0 0.00 0.00 0.00 95 1012.0
20220524002527 55 0.0 0.0 0.00 0.00 0.00 95 1012.0
20220524001527 55 0.0 0.0 0.00 0.00 0.00 94 1011.9
20220524000526 56 0.0 0.0 0.00 0.00 0.00 95 1012.1
20220523235527 55 0.0 0.0 0.00 0.00 0.00 94 1012.1
20220523234539 55 0.0 0.0 0.00 0.00 0.00 95 1012.1
20220523233527 54 0.0 0.0 0.00 0.00 0.00 95 1012.2
20220523232525 55 0.0 0.0 0.00 0.00 0.00 94 1012.2
20220523231525 55 0.0 0.0 0.00 0.00 0.00 94 1012.2
20220523230526 55 0.0 0.0 0.00 0.00 0.00 94 1012.1
20220523225525 55 0.0 0.0 0.00 0.00 0.00 93 1012.2
20220523224525 55 0.0 0.0 0.00 0.00 0.00 93 1012.3
20220523223525 55 0.0 0.0 0.00 0.00 0.00 94 1012.2
20220523222525 55 0.0 0.0 0.00 0.00 0.00 95 1012.0
20220523221525 55 0.0 0.0 0.00 0.00 0.00 96 1012.1
20220523220549 55 0.0 0.0 0.00 0.00 0.00 95 1012.1
20220523215549 55 0.0 0.0 0.00 0.00 0.00 94 1012.1
20220523214526 55 0.0 0.0 0.00 0.00 0.00 92 1012.1
20220523213526 55 0.0 0.0 0.00 0.00 0.00 90 1012.1
20220523212526 55 0.0 0.0 0.00 0.00 0.00 89 1012.2
20220523211526 55 0.0 0.0 0.00 0.00 0.00 88 1012.1
20220523210537 55 0.0 0.0 0.00 0.00 0.00 86 1012.0
20220523205525 55 0.0 0.0 0.00 0.00 0.00 86 1012.0
20220523204524 55 0.0 0.0 0.00 0.00 0.00 86 1012.1
20220523203524 55 0.0 0.0 0.00 0.00 0.00 86 1012.1
20220523202525 56 202 0.0 1.0 0.00 0.00 0.00 86 1012.0
20220523201525 56 202 0.0 0.0 0.00 0.00 0.00 86 1012.1
20220523200525 56 270 0.0 0.0 0.00 0.00 0.00 86 1012.0
20220523195549 56 259 0.0 2.0 0.00 0.00 0.00 85 1012.0
20220523194524 56 264 0.0 1.0 0.00 0.00 0.00 86 1012.1
20220523193524 56 177 2.0 5.0 0.00 0.00 0.00 85 1012.0
20220523192537 56 193 0.0 2.0 0.00 0.00 0.00 87 1012.0
20220523191523 56 248 0.0 0.0 0.00 0.00 0.00 87 1012.0
20220523190524 56 225 0.0 1.0 0.00 0.00 0.00 87 1011.9
20220523185523 56 0.0 0.0 0.00 0.00 0.00 86 1011.7